Weather History for Flippin, AR

Change the Weather History Date:

Monday, January 12, 2009

  Actual Average Record
Temperature  
Mean Temperature 42 °F -  
Max Temperature 57 °F 44 °F 69 °F (2000)
Min Temperature 26 °F 26 °F 6 °F (1997)
Degree Days  
Heating Degree Days 24    
Moisture  
Dew Point 24 °F    
Average Humidity 57    
Maximum Humidity 93    
Minimum Humidity 25    
Precipitation  
Precipitation 0.00 in - - ()
Sea Level Pressure  
Sea Level Pressure 30.09 in    
Wind  
Wind Speed 4 mph (WSW)    
Max Wind Speed 18 mph    
Max Gust Speed 30 mph    
Visibility 10 miles    
Events      
Averages and records for this station are not official NWS values.
T = Trace of Precipitation, MM = Missing Value Source: NWS Daily Summary

Daily Weather History Graph

Daily Weather History Graph

Search for Another Location

Airport:

Trip Planner

Search our weather history database for the weather conditions in past years. The results will help you decide how hot, cold, wet, or windy it might be!

Date:

Astronomy

Jan. 12, 2009 Rise Set
Actual Time 7:21 AM CST 5:16 PM CST
Civil Twilight 6:53 AM CST 5:44 PM CST
Nautical Twilight 6:21 AM CST 6:16 PM CST
Astronomical Twilight 5:50 AM CST 6:47 PM CST
Moon 7:25 PM CST (1/12) 8:32 AM CST (1/12)
Length of Visible Light 10h 51m
Length of Day
9h 54m
Waning Gibbous, 96% of the Moon is Illuminated
Jan 12
Waning Gibbous
Jan 17
Last Quarter
Jan 26
New
Feb 2
First Quarter
Feb 9
Full

Hourly Weather History & Observations

Time (CST) Temp. Windchill Dew Point Humidity Pressure Visibility Wind Dir Wind Speed Gust Speed Precip Events Conditions
12:35 AM 30.2 °F - 23.0 °F 75% 30.18 in 10.0 mi Calm Calm - N/A   Clear
12:55 AM 28.4 °F - 21.2 °F 74% 30.17 in 9.0 mi Calm Calm - N/A   Clear
1:15 AM 28.4 °F - 23.0 °F 80% 30.17 in 10.0 mi Calm Calm - N/A   Clear
1:35 AM 26.6 °F - 23.0 °F 86% 30.18 in 9.0 mi Calm Calm - N/A   Clear
1:55 AM 26.6 °F - 23.0 °F 86% 30.18 in 10.0 mi Calm Calm - N/A   Clear
2:35 AM 26.6 °F - 23.0 °F 86% 30.19 in 10.0 mi Calm Calm - N/A   Clear
2:55 AM 26.6 °F 21.2 °F 23.0 °F 86% 30.18 in 10.0 mi NE 4.6 mph - N/A   Clear
3:15 AM 26.6 °F 21.2 °F 24.8 °F 93% 30.16 in 10.0 mi ENE 4.6 mph - N/A   Clear
3:35 AM 26.6 °F - 23.0 °F 86% 30.17 in 10.0 mi Calm Calm - N/A   Clear
3:55 AM 26.6 °F - 21.2 °F 80% 30.17 in 10.0 mi Calm Calm - N/A   Clear
4:15 AM 26.6 °F - 23.0 °F 86% 30.16 in 10.0 mi Calm Calm - N/A   Clear
4:35 AM 26.6 °F - 21.2 °F 80% 30.16 in 10.0 mi Calm Calm - N/A   Clear
4:55 AM 26.6 °F - 23.0 °F 86% 30.16 in 10.0 mi Calm Calm - N/A   Clear
5:15 AM 26.6 °F - 24.8 °F 93% 30.16 in 10.0 mi Calm Calm - N/A   Clear
5:35 AM 26.6 °F - 23.0 °F 86% 30.16 in 10.0 mi Calm Calm - N/A   Clear
5:55 AM 26.6 °F - 23.0 °F 86% 30.16 in 10.0 mi Calm Calm - N/A   Clear
6:35 AM 26.6 °F - 24.8 °F 93% 30.17 in 10.0 mi Calm Calm - N/A   Clear
6:55 AM 26.6 °F - 23.0 °F 86% 30.17 in 10.0 mi Calm Calm - N/A   Mostly Cloudy
7:35 AM 28.4 °F - 24.8 °F 86% 30.16 in 10.0 mi Calm Calm - N/A   Overcast
7:55 AM 28.4 °F - 24.8 °F 86% 30.15 in 10.0 mi Calm Calm - N/A   Overcast
8:35 AM 30.2 °F - 26.6 °F 86% 30.16 in 10.0 mi Calm Calm - N/A   Overcast
8:55 AM 30.2 °F - 24.8 °F 80% 30.15 in 10.0 mi Calm Calm - N/A   Overcast
9:15 AM 32.0 °F 26.4 °F 26.6 °F 80% 30.14 in 10.0 mi SE 5.8 mph - N/A   Mostly Cloudy
9:35 AM 33.8 °F 29.6 °F 28.4 °F 81% 30.14 in 10.0 mi East 4.6 mph - N/A   Partly Cloudy
9:55 AM 35.6 °F - 26.6 °F 70% 30.14 in 10.0 mi Calm Calm - N/A   Clear
10:15 AM 39.2 °F 37.0 °F 26.6 °F 61% 30.13 in 10.0 mi SE 3.5 mph - N/A   Scattered Clouds
10:35 AM 42.8 °F - 26.6 °F 53% 30.13 in 10.0 mi Calm Calm - N/A   Partly Cloudy
10:55 AM 44.6 °F 43.1 °F 28.4 °F 53% 30.12 in 10.0 mi SSE 3.5 mph - N/A   Clear
11:55 AM 51.8 °F - 24.8 °F 35% 30.06 in 10.0 mi South 9.2 mph - N/A   Overcast
12:15 PM 53.6 °F - 23.0 °F 30% 30.05 in 10.0 mi South 9.2 mph - N/A   Overcast
12:35 PM 53.6 °F - 21.2 °F 28% 30.04 in 10.0 mi South 6.9 mph 17.3 mph N/A   Overcast
12:55 PM 53.6 °F - 21.2 °F 28% 30.02 in 10.0 mi South 9.2 mph 16.1 mph N/A   Mostly Cloudy
1:15 PM 55.4 °F - 23.0 °F 29% 30.01 in 10.0 mi SSW 12.7 mph 18.4 mph N/A   Scattered Clouds
1:35 PM 55.4 °F - 19.4 °F 25% 29.99 in 10.0 mi SSW 10.4 mph 17.3 mph N/A   Scattered Clouds
1:55 PM 57.2 °F - 21.2 °F 25% 29.98 in 10.0 mi South 12.7 mph 20.7 mph N/A   Scattered Clouds
2:35 PM 57.2 °F - 23.0 °F 27% 29.97 in 10.0 mi SSW 10.4 mph 20.7 mph N/A   Clear
2:55 PM 57.2 °F - 21.2 °F 25% 29.97 in 10.0 mi SW 18.4 mph 29.9 mph N/A   Clear
3:15 PM 57.2 °F - 21.2 °F 25% 29.96 in 10.0 mi SSW 16.1 mph 26.5 mph N/A   Clear
3:35 PM 57.2 °F - 23.0 °F 27% 29.96 in 10.0 mi SSW 10.4 mph 21.9 mph N/A   Clear
3:55 PM 57.2 °F - 23.0 °F 27% 29.97 in 10.0 mi SSW 10.4 mph 18.4 mph N/A   Clear
4:15 PM 55.4 °F - 23.0 °F 29% 29.97 in 10.0 mi SW 13.8 mph 19.6 mph N/A   Clear
4:35 PM 55.4 °F - 24.8 °F 31% 29.97 in 10.0 mi SSW 8.1 mph - N/A   Clear
4:55 PM 55.4 °F - 24.8 °F 31% 29.97 in 10.0 mi SW 8.1 mph - N/A   Clear
5:35 PM 53.6 °F - 24.8 °F 33% 29.97 in 10.0 mi SSW 5.8 mph - N/A   Mostly Cloudy
5:55 PM 51.8 °F - 24.8 °F 35% 29.98 in 10.0 mi SW 6.9 mph - N/A   Overcast
6:35 PM 53.6 °F - 21.2 °F 28% 30.00 in 10.0 mi WNW 12.7 mph - N/A   Overcast
6:55 PM 53.6 °F - 24.8 °F 33% 30.02 in 10.0 mi NNW 13.8 mph 23.0 mph N/A   Overcast
7:35 PM 50.0 °F - 24.8 °F 37% 30.04 in 10.0 mi NW 12.7 mph 20.7 mph N/A   Overcast
7:55 PM 50.0 °F - 26.6 °F 40% 30.05 in 10.0 mi WNW 13.8 mph 20.7 mph N/A   Overcast
8:15 PM 48.2 °F - 26.6 °F 43% 30.05 in 10.0 mi WNW 12.7 mph - N/A   Overcast
8:35 PM 48.2 °F - 26.6 °F 43% 30.06 in 10.0 mi West 10.4 mph 17.3 mph N/A   Scattered Clouds
8:55 PM 46.4 °F 43.5 °F 26.6 °F 46% 30.06 in 10.0 mi WNW 5.8 mph - N/A   Clear
9:15 PM 46.4 °F 42.4 °F 24.8 °F 43% 30.06 in 10.0 mi WNW 8.1 mph - N/A   Clear
9:35 PM 44.6 °F 41.4 °F 24.8 °F 46% 30.06 in 10.0 mi WNW 5.8 mph - N/A   Clear
9:55 PM 44.6 °F 42.2 °F 24.8 °F 46% 30.06 in 10.0 mi West 4.6 mph - N/A   Clear
10:15 PM 42.8 °F 39.3 °F 24.8 °F 49% 30.07 in 10.0 mi West 5.8 mph - N/A   Clear
10:35 PM 44.6 °F 37.4 °F 26.6 °F 49% 30.09 in 10.0 mi NW 16.1 mph 21.9 mph N/A   Clear
10:55 PM 42.8 °F 34.8 °F 26.6 °F 53% 30.11 in 10.0 mi NNW 17.3 mph 24.2 mph N/A   Clear
11:15 PM 39.2 °F 31.2 °F 28.4 °F 65% 30.11 in 10.0 mi NW 13.8 mph 21.9 mph N/A   Partly Cloudy
11:35 PM 39.2 °F 30.2 °F 28.4 °F 65% 30.12 in 10.0 mi NW 17.3 mph 23.0 mph N/A   Scattered Clouds
11:55 PM 37.4 °F 28.5 °F 24.8 °F 60% 30.14 in 10.0 mi NNW 15.0 mph 26.5 mph N/A   Partly Cloudy